Location: *
(49.4547°N, 7.9131°E)
Time: 19:48:00
(UTC+00:00)

Cosmos 2227 Rocket - Pass Details

Date: 22 September 2019
Orbit: 837 x 847 km, 71.0° (Epoch: 15 October)

Event Time Altitude Azimuth Distance (km) Brightness Sun altitude
Rises 18:02:45 0° 172° (S) 3,383 5.2 -6.6°
Reaches altitude 10° 18:05:28 10° 161° (SSE) 2,454 4.4 -7.0°
Maximum altitude 18:10:11 28° 104° (ESE) 1,529 3.0 -7.8°
Drops below altitude 10° 18:14:56 10° 47° (NE) 2,475 4.3 -8.5°
Sets 18:17:41 0° 36° (NE) 3,416 5.1 -9.0°
